Location: Home
(42.5358°N, 72.7383°W)
Time: 13:14:16
(UTC-05:00)

Transit 4A - Pass Details

Date: 01 December 2021
Orbit: 863 x 981 km, 66.8° (Epoch: 26 January)

Event Time Altitude Azimuth Distance (km) Brightness Sun altitude
Rises 21:35:41 0° 264° (W) 3,474 - -56.9°
Reaches altitude 10° 21:39:06 10° 284° (WNW) 2,557 - -57.4°
Maximum altitude 21:42:53 17° 324° (NW) 2,116 - -58.0°
Drops below altitude 10° 21:46:44 10° 4° (N) 2,614 - -58.7°
Sets 21:50:18 0° 24° (NNE) 3,585 - -59.2°
